Погода в Фаустово

Россия / Московская область     55°26′15″N   38°29′20″E
темп.,
°C
ветер,
м/с
пор.,
м/с
влажн.,
%
обл.,
%
осадки,
мм/ч
давл.,
гПа
погр.,
м
17 мая, пн
пн1700:00+13всв118713 0.0 101411
03:00+13всв229017 0.0 101419
06:00+14всв259198 0.0 1014111
09:00+20в477076 0.1 1014423
12:00+24вюв686015 0.0 1013892
15:00+28вюв59496 0.0 10111519
18:00+25юв511605 0.0 1010744
21:00+21юв51571100 0.0 1010455
18 мая, вт
вт1800:00+17вюв412885 0.0 1010245
03:00+17юв5157766 0.0 1010316
06:00+16юв414735 0.0 1010345
09:00+21юв51357100 0.0 1010562
12:00+25юв6114423 0.0 1010864
15:00+27юв610435 0.0 10092081
18:00+24вюв5124750 0.0 1007671
21:00+21вюв6166277 0.0 1008706
19 мая, ср
ср1900:00+18вюв413775 0.0 1008391
03:00+15вюв37861 0.0 1008166
06:00+16ююв4108694 0.0 1009319
09:00+20в456894 0.0 1008452
12:00+25юв6154896 0.0 10071755
15:00+25ююв51354100 0.0 10061842
18:00+22ююв61272100 0.6 1006765
21:00+17юв310876 0.6 1007282
20 мая, чт
чт2000:00+15юв37967 0.0 1007145
03:00+14вюв379690 0.0 1007136
06:00+16юв4139196 0.2 1008540
09:00+19юв687235 0.2 10071009
12:00+19ююв6106499 0.7 10081379
15:00+20ююв576144 1.0 10071348
18:00+18ююв5874100 0.4 1006927
21:00+14ююв3109296 1.3 1006285
21 мая, пт
пт2100:00+12ююв4109697 0.5 1007309
03:00+11ю4109894 0.7 1007508
06:00+10ююз61090100 0.3 1008818
09:00+9ююз71290100 0.3 10101034
12:00+11юз81383100 0.1 10121132
15:00+11юз71184100 0.1 1014976
18:00+12зюз598199 0.0 1016922
21:00+11зюз3784100 0.1 1019422